Weather in Azua de Compostela

Dominican Republic     18°27′13″N   70°44′01″W
temp.,
°C
wind,
m/s
gust,
m/s
humid.,
%
clouds,
%
prec.,
mm/h
press.,
hPa
HPBL,
m
27 november, sat
sat2723:00+20n228813 0.5 101525
02:00+20n118664 0.8 101419
05:00+20n22895 0.1 101424
08:00+21nne118235 0.1 101657
11:00+26s21607 0.0 1016974
14:00+27sse325626 0.1 10131194
17:00+25sse227065 0.3 1013360
20:00+21n118833 0.5 101528
28 november, sun
sun2823:00+20n22819 0.1 101543
02:00+20n22794 0.1 101530
05:00+19nne2277100 0.0 101533
08:00+21n127168 0.0 101657
11:00+27ssw215196 0.0 1016913
14:00+29s324657 0.0 10131393
17:00+25s22619 0.0 1013455
20:00+21nne22815 0.0 101529
29 november, mon
mon2923:00+21n22755 0.0 101544
02:00+20n227515 0.0 101530
05:00+19n22750 0.0 101425
08:00+21nne11695 0.0 101557
11:00+27s215271 0.0 1016858
14:00+28s324817 0.0 10131314
17:00+25sse226718 0.0 1013425
20:00+21nne118723 0.0 101521
30 november, tue
tue3023:00+20n118224 0.0 101621
02:00+20n227875 0.0 101525
05:00+19n227713 0.0 101524
08:00+21n226924 0.0 101663
11:00+28s224923 0.0 10171031
14:00+29s434995 0.0 10141219
17:00+26s226435 0.0 1014600
20:00+22nne128142 0.1 101627
1 december, wed
wed123:00+21n2276100 0.0 101748
02:00+21nne227596 0.0 101629
05:00+20nne2272100 0.0 101624
08:00+22n12615 0.0 101856
11:00+28s224311 0.0 10181032
14:00+29s434637 0.0 10151369
17:00+27s326582 0.0 1015601
20:00+22n118889 0.3 101727